Location: Newark
(26.8229°N, 81.7649°W)
Time: 21:50:01
(UTC+00:00)

N. Korean satellite - Pass Details

Date: 24 January 2020
Orbit: 456 x 505 km, 97.2° (Epoch: 19 February)

Event Time Altitude Azimuth Distance (km) Brightness Sun altitude
Rises 10:56:07 0° 15° (NNE) 2,540 10.2 -17.8°
Reaches altitude 10° 10:58:11 10° 18° (NNE) 1,666 9.3 -17.4°
Maximum altitude 11:01:44 63° 100° (E) 550 7.0 -16.6°
Drops below altitude 10° 11:05:19 10° 182° (S) 1,684 9.4 -15.8°
Sets 11:07:25 0° 186° (S) 2,569 10.4 -15.4°
